Simultaneous Nadir Overpasses (SNOs) Predictions

Prediction of SNOs between NOAA-19 and TERRA Satellite Orbit:

Table of predicted SNOs for the next 14.0 days since TLE Epoch: 5/2/2020
Index Date (NOAA-19) Time (NOAA-19) Lat,Lon (NOAA-19) SZA (NOAA-19 ) Date (TERRA) Time (TERRA) Lat,Lon (TERRA) SZA (TERRA ) Distance(km) Time Diff (sec)
1 05/03/2020 12:27:08 -79.40,-159.37 115.22 05/03/2020 12:27:54 -79.40,-159.32 115.20 1.11 46
2 05/03/2020 13:18:13 79.39, 8.01 64.78 05/03/2020 13:17:21 79.37, 8.12 64.75 2.85 52
3 05/05/2020 18:00:32 79.40, -62.60 64.17 05/05/2020 18:01:39 79.41, -62.73 64.18 2.76 67
4 05/05/2020 18:51:26 -79.37, 104.92 115.85 05/05/2020 18:51:06 -79.40, 104.90 115.83 3.44 20
5 05/08/2020 00:24:51 79.40,-158.55 63.56 05/08/2020 00:24:52 79.42,-158.44 63.59 3.36 1
6 05/10/2020 05:58:05 -79.42, -62.02 117.02 05/10/2020 05:58:41 -79.40, -62.00 117.03 2.24 36
7 05/10/2020 06:49:10 79.39, 105.47 62.97 05/10/2020 06:48:08 79.37, 105.41 62.92 3.18 62
8 05/12/2020 11:31:29 79.41, 34.80 62.43 05/12/2020 11:32:29 79.44, 34.78 62.47 2.52 60
9 05/12/2020 12:22:23 -79.40,-157.75 117.59 05/12/2020 12:21:57 -79.41,-157.79 117.59 1.53 26
10 05/14/2020 17:55:48 79.42, -61.22 61.89 05/14/2020 17:55:47 79.41, -61.22 61.88 0.75 1




NCC Satellite Simultaneous Nadir Overpasses (SNOs) Prediction Service
